Regional Weather Roundup
Issued by NWS

Home | Current Version | Previous Version | Graphics & Text | Print | Product List | Glossary On
Versions: 1 2 3 4 5 6 7 8 9 10 11 12 13 14 15 16 17 18 19 20 21 22 23 24 25 26 27 28 29 30 31 32 33 34 35 36 37 38 39 40 41 42 43 44 45 46 47 48 49 50
000
ASUS45 KBOU 241007
RWRCO

WEATHER ROUNDUP FOR COLORADO
NATIONAL WEATHER SERVICE DENVER/BOULDER CO
400 AM MDT SUN MAY 24 2015

NOTE: "FAIR" INDICATES FEW OR NO CLOUDS BELOW 12000 FEET WITH NO
SIGNIFICANT WEATHER AND/OR OBSTRUCTIONS TO VISIBILITY.

COZ001>005-013-030-031-241100-
...NORTHWEST COLORADO...

CITY           SKY/WX    TMP DP  RH WIND       PRES   REMARKS
CRAIG          CLOUDY    41  36  82 CALM      29.98F
HAYDEN         CLOUDY    39  34  81 E6        29.98S
MEEKER         CLOUDY    37  34  89 CALM      29.99S
MOUNT WERNER   NOT AVBL
STEAMBOAT SPGS CLOUDY    36  35  96 CALM      29.98F
WALDEN         MOCLDY    32  30  93 SE7       29.92F WCI  26
$$

COZ006>008-011-241100-
...WEST CENTRAL VALLEYS...

CITY           SKY/WX    TMP DP  RH WIND       PRES   REMARKS
GRAND JUNCTION CLOUDY    45  42  89 E8        29.96F
MONTROSE       CLOUDY    40  39  97 NE3       30.02R FOG
EAGLE          CLOUDY    37  36  93 CALM      30.03F
RIFLE          CLOUDY    44  40  85 CALM      29.97F
DELTA          CLOUDY    46  44  94 MISG      30.00S
NUCLA          CLOUDY    39  37  93 CALM      30.04S
$$

COZ017>023-064>068-241100-
...SOUTHWEST COLORADO...

CITY           SKY/WX    TMP DP  RH WIND       PRES   REMARKS
DURANGO        LGT RAIN  41  39  93 CALM      30.01S
CORTEZ         LGT RAIN  44  42  93 CALM      30.00F
PAGOSA SPRINGS DRIZZLE   41  38  90 W3        30.04S
TELLURIDE      MOCLDY    32  29  89 SE8       30.05F WCI  25
WOLF CREEK PAS NOT AVBL
$$

COZ009-010-012-014-032>034-037-058>063-241100-
...CENTRAL COLORADO...

CITY           SKY/WX    TMP DP  RH WIND       PRES   REMARKS
ASPEN          CLOUDY    38  34  85 SE5       30.00F
BUENA VISTA    PTCLDY    37  29  72 CALM      30.00S
COPPER MTN     PTCLDY    28  19  69 S10       30.08F WCI  19
BERTHOUD PASS  FAIR      21  12  68 W7        30.11F WCI  13
COTTONWOOD PAS CLOUDY    36  27  69 CALM      30.04S
GUNNISON       MOCLDY    37  30  75 N3        30.04F
KREMMLING      PTCLDY    34  32  93 CALM      30.02F
LEADVILLE      LGT SNOW  29  25  85 N3        30.04F FOG
MONARCH PASS   FOG       23  21  93 MISG      30.19F VSB<1/4
SALIDA         PTCLDY    37  31  80 W6        30.07S
SUNLIGHT       CLOUDY    32  30  93 CALM        N/A
WILKERSON PASS MOCLDY    28  27  93 S3        30.10F
$$

COZ069>075-241100-
...SAN LUIS VALLEY/SANGRE DE CRISTO MOUNTAINS...

CITY           SKY/WX    TMP DP  RH WIND       PRES   REMARKS
ALAMOSA        CLOUDY    41  30  65 VRB6      30.00S
LA VETA PASS   PTCLDY   N/A N/A N/A MISG      30.07F
SAGUACHE       CLOUDY    39  30  70 NW8       30.00F
$$

COZ035-036-038>040-241100-
...NORTHERN COLORADO FRONT RANGE...

CITY           SKY/WX    TMP DP  RH WIND       PRES   REMARKS
DENVER INTL AP PTCLDY    41  39  93 SW7       29.92F
DMNS CITY PARK   N/A     41  40  96 S2        29.92F
AURORA         PTCLDY    41  40  96 SW6       29.93F
FRONT RANGE AP NOT AVBL
ERIE MUNI ARPT CLEAR     38  37  98 S6        29.91F
BOULDER MUN AP CLEAR     41  37  87 W6        29.91F
CENTENNIAL     PTCLDY    40  38  93 CALM      29.93F
BROOMFIELD     CLEAR     45  36  70 W5        29.93F
FORT COLLINS   CLEAR     43  39  87 CALM      29.92F
LONGMONT       CLEAR     38  37  94 W3        29.93F
$$

COZ041-046-047-076>085-087-088-241100-
...PIKES PEAK/PALMER DIVIDE AND SOUTHERN FOOTHILLS...

CITY           SKY/WX    TMP DP  RH WIND       PRES   REMARKS
COLO. SPRINGS  MOCLDY    45  40  82 N6        29.96S
A. F. ACADEMY  PTCLDY    38  36  94 N6        29.95F
ELLICOTT       NOT AVBL
FALCON         PTCLDY    40  39  93 N3        29.97F
FORT CARSON    PTCLDY    46  40  78 VRB1      29.94S
LIMON          PTCLDY    42  41  96 W6        29.92F FOG
MONUMENT HILL  NOT AVBL
TRINIDAD       CLOUDY    45  42  89 SW7       29.96R
$$

COZ042>045-048>051-090-091-241100-
...NORTHEAST COLORADO...

CITY           SKY/WX    TMP DP  RH WIND       PRES   REMARKS
GREELEY ARPT   CLEAR     43  39  87 W5        29.91F
AKRON          CLOUDY    48  48 100 S8        29.90F FOG
BURLINGTON     MOCLDY    48  43  82 W5        29.90S
WRAY           RAIN     N/A N/A N/A NE9       29.85F
STERLING       CLOUDY    50  50 100 CALM      29.88F
HOLYOKE        NOT AVBL
FORT MORGAN    CLOUDY    42  40  95 SW3       29.91F
$$

COZ086-089-092>099-241100-
...SOUTHEAST COLORADO...

CITY           SKY/WX    TMP DP  RH WIND       PRES   REMARKS
PUEBLO         PTCLDY    46  43  89 W3        29.92R
LA JUNTA       CLOUDY    53  50  89 W5        29.89F
LAMAR          CLOUDY    56  55  97 E3        29.86S
SPRINGFIELD      N/A     54  54 100 S8        29.90R
$$


USA.gov is the U.S. government's official web portal to all federal, state and local government web resources and services.